Location: Unspecified
(0.0000°N, 0.0000°E)
Time: 02:30:01
(UTC+00:00)

STARLINK-2036 - Pass Details

Date: 24 February 2021
Orbit: 316 x 318 km, 53.1° (Epoch: 23 February)

Event Time Altitude Azimuth Distance (km) Brightness Sun altitude
Exits shadow 05:19:32 - 349° (N) 1,639 5.8 -13.2°
Reaches altitude 10° 05:20:40 10° 359° (N) 1,219 5.3 -13.0°
Maximum altitude 05:22:56 24° 56° (NE) 724 4.8 -12.4°
Drops below altitude 10° 05:25:13 10° 113° (ESE) 1,227 6.8 -11.8°
Sets 05:27:24 0° 128° (SE) 2,063 7.8 -11.3°
